Home > Time Zones > World Clock > Weather > Iran > Ahvaz > Past weeks

Flag for Iran Weather past 2 weeks in Ahvaz, Iran

Now
106 °F

Sunny.


Feels Like: 108 °F
Forecast: 87 / 116 °F
Wind: No wind

Location: Ahwaz

Current Time: Aug 1, 2014 at 9:17:36 PM

Latest Report: Aug 1, 2014 at 8:30 PM


Visibility: 10 mi

Pressure: 29.39 "Hg

Humidity: 23%

Dew point: 61 °F

Location of AhvazLocation

Historic Weather in Ahvaz — Graph

°F

Ahvaz temperature yesterday

Maximum temperature yesterday: 113 °F (at 5:00 PM)
Minimum temperature yesterday: 86 °F (at 6:30 AM)
Average temperature yesterday: 101 °F

Past Weeks' High & Low Weather Summary

 TemperatureHumidityPressure
High120 °F (Jul 19, 4:00 PM)70% (Jul 31, 6:30 AM)29.56 "Hg (Jul 31, 6:30 AM)
Low82 °F (Jul 30, 5:30 AM)7% (Jul 27, 2:30 PM)29.30 "Hg (Jul 18, 6:30 PM)
Average103 °F22%29.42 "Hg
* Reported Jul 17 7:30 PM — Aug 1 8:00 PM, Ahvaz, Weather by CustomWeather, © 2014

Note: Actual official high and low records may vary slightly from our data, if they occured in-between our weather recording intervals... More about our weather records

Advertising

Ahvaz weather history for previous 24 hours

 ConditionsComfort  
Time TempWeatherWind HumidityBarometerVisibility
8:00 PM
Aug 1
108 °FSunny.No wind20%29.39 "Hg10 mi
7:30 PM111 °FSunny.5 mph20%29.39 "Hg10 mi
7:00 PM113 °FSunny.5 mph15%29.39 "Hg10 mi
6:30 PM115 °FSunny.9 mph15%29.39 "Hg10 mi
6:00 PM115 °FSunny.5 mph15%29.39 "Hg10 mi
5:30 PM117 °FSunny.7 mph15%29.39 "Hg10 mi
5:00 PM117 °FSunny.No wind15%29.39 "Hg10 mi
4:30 PM117 °FSunny.7 mph15%29.39 "Hg10 mi
4:00 PM115 °FSunny.No wind13%29.42 "Hg10 mi
3:30 PM115 °FSunny.7 mph14%29.42 "Hg10 mi
3:00 PM115 °FSunny.5 mph16%29.45 "Hg10 mi
2:30 PM113 °FSunny.7 mph17%29.45 "Hg10 mi
2:00 PM111 °FSunny.2 mph20%29.45 "Hg10 mi
1:00 PM108 °FSunny.2 mph19%29.45 "Hg10 mi
12:30 PM106 °FSunny.5 mph20%29.45 "Hg10 mi
12:00 PM106 °FSunny.5 mph25%29.47 "Hg5 mi
11:00 AM100 °FSunny.5 mph40%29.45 "Hg5 mi
10:00 AM97 °FSunny.5 mph47%29.45 "Hg10 mi
9:00 AM91 °FSunny.5 mph59%29.45 "Hg10 mi
8:30 AM90 °FSunny.7 mph67%29.45 "Hg10 mi
8:00 AM88 °FClear.7 mph66%29.45 "Hg10 mi
6:30 AM86 °FClear.N/A62%29.42 "Hg5 mi
5:30 AM88 °FClear.2 mph59%29.42 "Hg5 mi
4:30 AM88 °FClear.No wind46%29.42 "Hg10 mi
3:30 AM91 °FClear.No wind32%29.42 "Hg10 mi
2:30 AM95 °FClear.2 mph30%29.42 "Hg10 mi
1:30 AM99 °FClear.5 mph27%29.42 "Hg10 mi
1:00 AM99 °FClear.5 mph37%29.42 "Hg10 mi
12:30 AM99 °FClear.5 mph39%29.42 "Hg10 mi
12:00 AM99 °FClear.9 mph42%29.42 "Hg10 mi
11:30 PM
Jul 31
99 °FClear.7 mph42%29.42 "Hg10 mi
11:00 PM99 °FClear.5 mph39%29.39 "Hg10 mi
10:30 PM100 °FClear.5 mph37%29.39 "Hg10 mi
10:00 PM100 °FClear.5 mph45%29.39 "Hg10 mi
9:30 PM99 °FSunny.5 mph47%29.39 "Hg10 mi
9:00 PM99 °FSunny.No wind44%29.39 "Hg10 mi
Weather by CustomWeather, © 2014

See weather overviewHow to use our weather pages